FW3834 Weather Reports


time (UTC)temp
C
wind
direction
speed
KPH
gust
KPH
rain 1hr
cm
rain 24hr
cm
rain mn
cm
humidity
%
barometer
mb
20260505052032 13 50 1.6 1.6 0.00 0.00 0.00 76 1009.7
20260505051032 13 52 1.6 3.2 0.00 0.00 0.00 76 1009.7
20260505041052 15 58 0.0 1.6 0.00 0.00 0.00 76 1009.7
20260505040032 15 55 0.0 1.6 0.00 0.00 0.00 75 1009.8
20260505035032 16 0.0 0.0 0.00 0.00 0.00 74 1009.6
20260505034032 16 75 0.0 1.6 0.00 0.00 0.00 74 1009.6
20260505033032 16 0.0 0.0 0.00 0.00 0.00 71 1009.5
20260505032032 16 0.0 0.0 0.00 0.00 0.00 70 1009.5
20260505031032 16 0.0 0.0 0.00 0.00 0.00 71 1009.3
20260505030032 17 0.0 0.0 0.00 0.00 0.00 71 1009.3
20260505025032 17 0.0 0.0 0.00 0.00 0.00 70 1009.2
20260505024052 17 67 0.0 1.6 0.00 0.00 0.00 70 1009.0
20260505023032 17 0.0 0.0 0.00 0.00 0.00 69 1009.1
20260505022032 18 67 0.0 1.6 0.00 0.00 0.00 70 1009.2
20260505021052 18 0.0 0.0 0.00 0.00 0.00 70 1009.4
20260505020053 18 72 0.0 1.6 0.00 0.00 0.00 68 1009.4
20260505015032 19 81 0.0 1.6 0.00 0.00 0.00 65 1009.6
20260505014032 19 70 0.0 1.6 0.00 0.00 0.00 65 1009.5
20260505013052 19 79 0.0 1.6 0.00 0.00 0.00 63 1009.5
20260505012052 20 67 0.0 1.6 0.00 0.00 0.00 62 1009.5
20260505011032 19 66 0.0 1.6 0.00 0.00 0.00 60 1009.5
20260505010032 20 71 0.0 1.6 0.00 0.00 0.00 59 1009.5
20260505005032 20 80 0.0 3.2 0.00 0.00 0.00 57 1009.4
20260505004032 20 0.0 0.0 0.00 0.00 0.00 60 1009.6
20260505003032 20 84 0.0 3.2 0.00 0.00 0.00 61 1009.5
20260505002032 20 0.0 0.0 0.00 0.00 0.00 61 1009.6
20260505001032 20 0.0 0.0 0.00 0.00 0.00 59 1009.6
20260505000032 20 84 0.0 1.6 0.00 0.00 0.00 59 1009.6
20260504235032 20 84 0.0 1.6 0.00 0.00 0.00 56 1009.7
20260504234032 21 0.0 0.0 0.00 0.00 0.00 53 1009.6
20260504233032 21 0.0 0.0 0.00 0.00 0.00 54 1009.6
20260504232032 21 0.0 0.0 0.00 0.00 0.00 55 1009.7
20260504231032 21 80 0.0 1.6 0.00 0.00 0.00 53 1009.8
20260504230032 21 80 0.0 1.6 0.00 0.00 0.00 53 1009.8
20260504225052 21 79 0.0 1.6 0.00 0.00 0.00 48 1009.9
20260504224032 21 68 0.0 1.6 0.00 0.00 0.00 47 1010.0
20260504223032 21 71 0.0 1.6 0.00 0.00 0.00 47 1010.1
20260504222032 22 76 0.0 1.6 0.00 0.00 0.00 47 1010.2
20260504221032 21 75 0.0 1.6 0.00 0.00 0.00 46 1010.2
20260504220052 21 71 0.0 1.6 0.00 0.00 0.00 50 1010.2
20260504215032 22 85 0.0 3.2 0.00 0.00 0.00 45 1010.3
20260504214032 21 0.0 0.0 0.00 0.00 0.00 45 1010.3
20260504213032 21 82 0.0 3.2 0.00 0.00 0.00 47 1010.4
20260504212032 22 85 1.6 4.8 0.00 0.00 0.00 47 1010.4
20260504211032 22 79 1.6 3.2 0.00 0.00 0.00 46 1010.5
20260504210032 22 85 3.2 4.8 0.00 0.00 0.00 45 1010.5
20260504205032 22 79 1.6 3.2 0.00 0.00 0.00 43 1010.4
20260504204032 22 85 3.2 4.8 0.00 0.00 0.00 42 1010.3
20260504203032 22 81 1.6 3.2 0.00 0.00 0.00 41 1010.4
20260504202032 22 81 3.2 3.2 0.00 0.00 0.00 39 1010.4
20260504201032 22 82 3.2 3.2 0.00 0.00 0.00 40 1010.5
20260504200032 22 80 1.6 3.2 0.00 0.00 0.00 41 1010.5
20260504195052 21 77 1.6 4.8 0.00 0.00 0.00 44 1010.6
20260504194032 22 77 1.6 3.2 0.00 0.00 0.00 43 1010.6
20260504193032 22 80 1.6 3.2 0.00 0.00 0.00 44 1010.6
20260504192032 22 80 3.2 3.2 0.00 0.00 0.00 43 1010.4
20260504191032 22 78 1.6 3.2 0.00 0.00 0.00 43 1010.4
20260504190032 22 77 1.6 3.2 0.00 0.00 0.00 43 1010.5
20260504185032 22 77 0.0 1.6 0.00 0.00 0.00 44 1010.5
20260504184032 22 80 1.6 1.6 0.00 0.00 0.00 44 1010.6
20260504183032 21 78 1.6 3.2 0.00 0.00 0.00 45 1010.7
20260504182032 22 83 1.6 3.2 0.00 0.00 0.00 45 1010.8
20260504181032 21 80 3.2 3.2 0.00 0.00 0.00 46 1010.7
20260504180032 21 81 1.6 3.2 0.00 0.00 0.00 45 1010.7
20260504175032 21 82 1.6 3.2 0.00 0.00 0.00 45 1010.8
20260504174032 21 81 1.6 3.2 0.00 0.00 0.00 46 1010.8
20260504173032 20 80 0.0 3.2 0.00 0.00 0.00 45 1010.8
20260504172032 20 80 1.6 3.2 0.00 0.00 0.00 46 1010.9
20260504171032 20 80 0.0 1.6 0.00 0.00 0.00 46 1010.9
20260504151032 14 63 0.0 1.6 0.00 0.00 0.00 69 1010.5
20260504141032 12 63 0.0 1.6 0.00 0.00 0.00 74 1010.1
20260504081052 12 63 1.6 1.6 0.00 0.00 0.00 68 1010.2